Time,TemperatureF,DewpointF,PressureIn,WindDirection,WindDirectionDegrees,WindSpeedMPH,WindSpeedGustMPH,Humidity,HourlyPrecipIn,Conditions,Clouds,dailyrainin,SoftwareType,DateUTC
2015-03-01 00:00:00,21.6,-8.8,29.53,South,173,0.0,4.0,25,0.00,,,-99.99,VWS V14.00,2015-03-01 05:00:00,
2015-03-01 00:02:00,21.4,-9.0,29.53,South,175,3.1,5.4,25,0.00,,,0.00,VWS V14.00,2015-03-01 05:02:00,
2015-03-01 00:08:00,21.2,-9.1,29.53,South,175,0.0,5.4,25,0.00,,,0.00,VWS V14.00,2015-03-01 05:08:00,
2015-03-01 00:13:00,21.2,-8.3,29.53,SSW,195,2.7,5.8,26,0.00,,,0.00,VWS V14.00,2015-03-01 05:13:00,
2015-03-01 00:18:00,20.8,-8.6,29.53,SSE,155,3.1,5.8,26,0.00,,,0.00,VWS V14.00,2015-03-01 05:18:00,
2015-03-01 00:23:00,20.7,-8.0,29.53,SE,143,3.6,5.8,27,0.00,,,0.00,VWS V14.00,2015-03-01 05:23:00,
2015-03-01 00:28:00,20.7,-7.3,29.53,South,170,0.0,5.8,28,0.00,,,0.00,VWS V14.00,2015-03-01 05:28:00,
2015-03-01 00:30:00,20.7,-7.3,29.53,SSE,163,0.0,5.8,28,0.00,,,-99.99,VWS V14.00,2015-03-01 05:30:00,
2015-03-01 00:33:00,20.7,-6.6,29.53,SSE,164,0.0,0.0,29,0.00,,,0.00,VWS V14.00,2015-03-01 05:33:00,
2015-03-01 00:38:00,20.7,-5.9,29.53,SSE,164,0.0,0.0,30,0.00,,,0.00,VWS V14.00,2015-03-01 05:38:00,
2015-03-01 00:43:00,20.7,-5.9,29.53,SSE,155,0.0,0.0,30,0.00,,,0.00,VWS V14.00,2015-03-01 05:43:00,
2015-03-01 00:48:00,20.8,-5.7,29.53,SSE,155,0.0,0.0,30,0.00,,,0.00,VWS V14.00,2015-03-01 05:48:00,
2015-03-01 00:53:00,21.0,-4.9,29.53,SSE,155,0.0,0.0,31,0.00,,,0.00,VWS V14.00,2015-03-01 05:53:00,
2015-03-01 00:58:00,21.0,-4.9,29.53,SSE,155,0.0,0.0,31,0.00,,,0.00,VWS V14.00,2015-03-01 05:58:00,
2015-03-01 01:00:00,21.2,-4.0,29.53,SSE,155,0.0,0.0,32,0.00,,,-99.99,VWS V14.00,2015-03-01 06:00:00,
2015-03-01 01:03:00,21.2,-4.0,29.53,SSE,155,0.0,0.0,32,0.00,,,0.00,VWS V14.00,2015-03-01 06:03:00,
2015-03-01 01:08:00,21.4,-3.9,29.53,SSE,155,0.0,0.0,32,0.00,,,0.00,VWS V14.00,2015-03-01 06:08:00,
2015-03-01 01:17:00,21.4,-3.2,29.50,SSE,155,0.0,0.0,33,0.00,,,0.00,VWS V14.00,2015-03-01 06:17:00,
2015-03-01 01:22:00,21.6,-3.1,29.50,SSE,155,0.0,0.0,33,0.00,,,0.00,VWS V14.00,2015-03-01 06:22:00,
2015-03-01 01:27:00,21.6,-3.1,29.50,SSE,155,0.0,0.0,33,0.00,,,0.00,VWS V14.00,2015-03-01 06:27:00,
2015-03-01 01:30:00,21.4,-3.2,29.50,SSE,155,2.2,3.6,33,0.00,,,-99.99,VWS V14.00,2015-03-01 06:30:00,
2015-03-01 01:32:00,21.4,-3.2,29.50,SSE,155,0.0,2.2,33,0.00,,,0.00,VWS V14.00,2015-03-01 06:32:00,
2015-03-01 01:37:00,21.4,-2.6,29.50,SSE,155,0.0,2.2,34,0.00,,,0.00,VWS V14.00,2015-03-01 06:37:00,
2015-03-01 01:42:00,21.4,-2.6,29.50,SSE,155,0.0,2.2,34,0.00,,,0.00,VWS V14.00,2015-03-01 06:42:00,
2015-03-01 01:47:00,21.4,-2.6,29.50,SSE,155,0.0,2.2,34,0.00,,,0.00,VWS V14.00,2015-03-01 06:47:00,
2015-03-01 01:52:00,21.4,-2.6,29.50,SSE,155,0.0,2.2,34,0.00,,,0.00,VWS V14.00,2015-03-01 06:52:00,
2015-03-01 01:57:00,21.2,-2.2,29.50,SSE,155,0.0,2.2,35,0.00,,,0.00,VWS V14.00,2015-03-01 06:57:00,
2015-03-01 02:00:00,21.2,-2.2,29.50,SSE,155,0.0,2.2,35,0.00,,,-99.99,VWS V14.00,2015-03-01 07:00:00,
2015-03-01 02:02:00,21.2,-2.2,29.50,SSE,155,0.0,0.0,35,0.00,,,0.00,VWS V14.00,2015-03-01 07:02:00,
2015-03-01 02:08:00,21.2,-2.2,29.50,SSE,155,0.0,0.0,35,0.00,,,0.00,VWS V14.00,2015-03-01 07:08:00,
2015-03-01 02:13:00,21.4,-2.0,29.50,SSE,155,0.0,0.0,35,0.00,,,0.00,VWS V14.00,2015-03-01 07:13:00,
2015-03-01 02:18:00,21.4,-1.4,29.50,SSE,155,0.0,0.0,36,0.00,,,0.00,VWS V14.00,2015-03-01 07:18:00,
2015-03-01 02:23:00,21.4,-1.4,29.50,SSE,155,0.0,0.0,36,0.00,,,0.00,VWS V14.00,2015-03-01 07:23:00,
2015-03-01 02:28:00,21.4,-1.4,29.50,SSE,155,0.0,0.0,36,0.00,,,0.00,VWS V14.00,2015-03-01 07:28:00,
2015-03-01 02:30:00,21.4,-1.4,29.50,SSE,155,0.0,0.0,36,0.00,,,-99.99,VWS V14.00,2015-03-01 07:30:00,
2015-03-01 02:33:00,21.4,-0.8,29.50,SSE,155,0.0,0.0,37,0.00,,,0.00,VWS V14.00,2015-03-01 07:33:00,
2015-03-01 02:38:00,21.4,-0.8,29.50,SSE,155,0.0,0.0,37,0.00,,,0.00,VWS V14.00,2015-03-01 07:38:00,
2015-03-01 02:43:00,21.4,-0.8,29.50,SSE,155,0.0,0.0,37,0.00,,,0.00,VWS V14.00,2015-03-01 07:43:00,
2015-03-01 02:48:00,21.4,-0.3,29.47,SSE,155,0.0,0.0,38,0.00,,,0.00,VWS V14.00,2015-03-01 07:48:00,
2015-03-01 02:53:00,21.4,-0.3,29.47,SSE,155,0.0,0.0,38,0.00,,,0.00,VWS V14.00,2015-03-01 07:53:00,
2015-03-01 02:58:00,21.4,-0.3,29.47,SSE,155,0.0,0.0,38,0.00,,,0.00,VWS V14.00,2015-03-01 07:58:00,
2015-03-01 03:00:00,21.4,-0.3,29.47,SSE,155,0.0,0.0,38,0.00,,,-99.99,VWS V14.00,2015-03-01 08:00:00,
2015-03-01 03:03:00,21.4,-0.3,29.47,SSE,155,0.0,0.0,38,0.00,,,0.00,VWS V14.00,2015-03-01 08:03:00,
2015-03-01 03:08:00,21.4,0.3,29.47,SSE,155,0.0,0.0,39,0.00,,,0.00,VWS V14.00,2015-03-01 08:08:00,
2015-03-01 03:13:00,21.4,0.3,29.47,SSE,155,0.0,0.0,39,0.00,,,0.00,VWS V14.00,2015-03-01 08:13:00,
2015-03-01 03:18:00,21.4,0.3,29.47,SSE,155,0.0,0.0,39,0.00,,,0.00,VWS V14.00,2015-03-01 08:18:00,
2015-03-01 03:23:00,21.4,0.3,29.47,SSE,155,0.0,0.0,39,0.00,,,0.00,VWS V14.00,2015-03-01 08:23:00,
2015-03-01 03:28:00,21.4,0.3,29.47,SSE,155,0.0,0.0,39,0.00,,,0.00,VWS V14.00,2015-03-01 08:28:00,
2015-03-01 03:30:00,21.4,0.8,29.47,SSE,155,0.0,0.0,40,0.00,,,-99.99,VWS V14.00,2015-03-01 08:30:00,
2015-03-01 03:33:00,21.4,0.8,29.47,SSE,155,0.0,0.0,40,0.00,,,0.00,VWS V14.00,2015-03-01 08:33:00,
2015-03-01 03:38:00,21.4,0.8,29.47,SSE,155,0.0,0.0,40,0.00,,,0.00,VWS V14.00,2015-03-01 08:38:00,
2015-03-01 03:43:00,21.2,0.7,29.47,SSE,155,0.0,0.0,40,0.00,,,0.00,VWS V14.00,2015-03-01 08:43:00,
2015-03-01 03:48:00,21.4,0.8,29.44,SSE,155,0.0,0.0,40,0.00,,,0.00,VWS V14.00,2015-03-01 08:48:00,
2015-03-01 03:53:00,21.2,1.2,29.44,SSE,155,0.0,0.0,41,0.00,,,0.00,VWS V14.00,2015-03-01 08:53:00,
2015-03-01 03:58:00,21.2,1.2,29.44,SSE,155,0.0,0.0,41,0.00,,,0.00,VWS V14.00,2015-03-01 08:58:00,
2015-03-01 04:00:00,21.2,1.2,29.44,SSE,155,0.0,0.0,41,0.00,,,-99.99,VWS V14.00,2015-03-01 09:00:00,
2015-03-01 04:03:00,21.2,1.2,29.44,SSE,155,0.0,0.0,41,0.00,,,0.00,VWS V14.00,2015-03-01 09:03:00,
2015-03-01 04:09:00,21.2,1.2,29.44,SSE,155,0.0,0.0,41,0.00,,,0.00,VWS V14.00,2015-03-01 09:09:00,
2015-03-01 04:14:00,21.2,1.2,29.44,SSE,155,0.0,0.0,41,0.00,,,0.00,VWS V14.00,2015-03-01 09:14:00,
2015-03-01 04:19:00,21.2,1.2,29.44,SSE,155,0.0,0.0,41,0.00,,,0.00,VWS V14.00,2015-03-01 09:19:00,
2015-03-01 04:24:00,21.2,1.2,29.44,SSE,155,0.0,0.0,41,0.00,,,0.00,VWS V14.00,2015-03-01 09:24:00,
2015-03-01 04:29:00,21.2,1.7,29.44,SSE,155,0.0,0.0,42,0.00,,,0.00,VWS V14.00,2015-03-01 09:29:00,
2015-03-01 04:30:00,21.2,1.7,29.44,SSE,155,0.0,0.0,42,0.00,,,-99.99,VWS V14.00,2015-03-01 09:30:00,
2015-03-01 04:34:00,21.2,1.7,29.44,SSE,155,0.0,0.0,42,0.00,,,0.00,VWS V14.00,2015-03-01 09:34:00,
2015-03-01 04:39:00,21.2,1.7,29.44,SSE,155,0.0,0.0,42,0.00,,,0.00,VWS V14.00,2015-03-01 09:39:00,
2015-03-01 04:44:00,21.2,1.7,29.44,SSE,155,0.0,0.0,42,0.00,,,0.00,VWS V14.00,2015-03-01 09:44:00,
2015-03-01 04:49:00,21.2,1.7,29.41,SSE,155,0.0,0.0,42,0.00,,,0.00,VWS V14.00,2015-03-01 09:49:00,
2015-03-01 04:54:00,21.2,1.7,29.41,SSE,155,0.0,0.0,42,0.00,,,0.00,VWS V14.00,2015-03-01 09:54:00,
2015-03-01 04:59:00,21.2,2.2,29.41,SSE,155,0.0,0.0,43,0.00,,,0.00,VWS V14.00,2015-03-01 09:59:00,
2015-03-01 05:00:00,21.2,2.2,29.41,SSE,155,0.0,0.0,43,0.00,,,-99.99,VWS V14.00,2015-03-01 10:00:00,
2015-03-01 05:04:00,21.2,2.2,29.41,SSE,155,0.0,0.0,43,0.00,,,0.00,VWS V14.00,2015-03-01 10:04:00,
2015-03-01 05:09:00,21.0,2.0,29.41,SSE,155,0.0,0.0,43,0.00,,,0.00,VWS V14.00,2015-03-01 10:09:00,
2015-03-01 05:14:00,21.0,2.0,29.41,SSE,155,0.0,0.0,43,0.00,,,0.00,VWS V14.00,2015-03-01 10:14:00,
2015-03-01 05:19:00,21.0,2.0,29.41,SSE,155,0.0,0.0,43,0.00,,,0.00,VWS V14.00,2015-03-01 10:19:00,
2015-03-01 05:24:00,21.0,2.0,29.41,SSE,155,0.0,0.0,43,0.00,,,0.00,VWS V14.00,2015-03-01 10:24:00,
2015-03-01 05:29:00,21.0,2.0,29.41,SSE,155,0.0,0.0,43,0.00,,,0.00,VWS V14.00,2015-03-01 10:29:00,
2015-03-01 05:30:00,21.0,2.0,29.41,SSE,155,0.0,0.0,43,0.00,,,-99.99,VWS V14.00,2015-03-01 10:30:00,
2015-03-01 05:34:00,21.0,2.0,29.41,SSE,155,0.0,0.0,43,0.00,,,0.00,VWS V14.00,2015-03-01 10:34:00,
2015-03-01 05:39:00,21.0,2.5,29.41,SSE,155,0.0,0.0,44,0.00,,,0.00,VWS V14.00,2015-03-01 10:39:00,
2015-03-01 05:44:00,21.0,2.5,29.41,SSE,155,0.0,0.0,44,0.00,,,0.00,VWS V14.00,2015-03-01 10:44:00,
2015-03-01 05:49:00,21.0,2.5,29.41,SSE,155,0.0,0.0,44,0.00,,,0.00,VWS V14.00,2015-03-01 10:49:00,
2015-03-01 05:54:00,21.0,2.5,29.41,SSE,155,0.0,0.0,44,0.00,,,0.00,VWS V14.00,2015-03-01 10:54:00,
2015-03-01 05:59:00,21.0,2.5,29.41,SSE,155,0.0,0.0,44,0.00,,,0.00,VWS V14.00,2015-03-01 10:59:00,
2015-03-01 06:00:00,21.0,2.5,29.41,SSE,155,0.0,0.0,44,0.00,,,-99.99,VWS V14.00,2015-03-01 11:00:00,
2015-03-01 06:05:00,21.0,2.5,29.41,SSE,155,0.0,0.0,44,0.00,,,0.00,VWS V14.00,2015-03-01 11:05:00,
2015-03-01 06:10:00,21.0,2.5,29.41,SSE,155,0.0,0.0,44,0.00,,,0.00,VWS V14.00,2015-03-01 11:10:00,
2015-03-01 06:15:00,21.0,2.5,29.41,SSE,155,0.0,0.0,44,0.00,,,0.00,VWS V14.00,2015-03-01 11:15:00,
2015-03-01 06:20:00,20.8,2.4,29.41,SSE,155,0.0,0.0,44,0.00,,,0.00,VWS V14.00,2015-03-01 11:20:00,
2015-03-01 06:25:00,21.0,2.5,29.41,SSE,155,0.0,0.0,44,0.00,,,0.00,VWS V14.00,2015-03-01 11:25:00,
2015-03-01 06:30:00,20.8,2.4,29.41,SSE,155,0.0,0.0,44,0.00,,,0.00,VWS V14.00,2015-03-01 11:30:00,
2015-03-01 06:35:00,21.0,3.0,29.41,SSE,155,0.0,0.0,45,0.00,,,0.00,VWS V14.00,2015-03-01 11:35:00,
2015-03-01 06:40:00,21.0,3.0,29.41,SSE,155,0.0,0.0,45,0.00,,,0.00,VWS V14.00,2015-03-01 11:40:00,
2015-03-01 06:45:00,21.0,3.0,29.41,SSE,155,0.0,0.0,45,0.00,,,0.00,VWS V14.00,2015-03-01 11:45:00,
2015-03-01 06:50:00,21.0,3.0,29.41,SSE,155,0.0,0.0,45,0.00,,,0.00,VWS V14.00,2015-03-01 11:50:00,
2015-03-01 06:55:00,21.0,3.0,29.41,SSE,155,0.0,0.0,45,0.00,,,0.00,VWS V14.00,2015-03-01 11:55:00,
2015-03-01 07:00:00,21.0,3.0,29.41,SSE,155,0.0,0.0,45,0.00,,,0.00,VWS V14.00,2015-03-01 12:00:00,
2015-03-01 07:05:00,21.2,3.2,29.41,SSE,155,0.0,0.0,45,0.00,,,0.00,VWS V14.00,2015-03-01 12:05:00,
2015-03-01 07:10:00,21.2,3.2,29.41,SSE,155,0.0,0.0,45,0.00,,,0.00,VWS V14.00,2015-03-01 12:10:00,
2015-03-01 07:15:00,21.2,3.2,29.41,SSE,155,0.0,0.0,45,0.00,,,0.00,VWS V14.00,2015-03-01 12:15:00,
2015-03-01 07:20:00,21.4,3.8,29.41,SSE,155,0.0,0.0,46,0.00,,,0.00,VWS V14.00,2015-03-01 12:20:00,
2015-03-01 07:25:00,21.4,3.8,29.41,SSE,155,0.0,0.0,46,0.00,,,0.00,VWS V14.00,2015-03-01 12:25:00,
2015-03-01 07:30:00,21.4,3.8,29.41,SSE,155,0.0,0.0,46,0.00,,,0.00,VWS V14.00,2015-03-01 12:30:00,
2015-03-01 07:35:00,21.6,4.0,29.41,SSE,155,0.0,0.0,46,0.00,,,0.00,VWS V14.00,2015-03-01 12:35:00,
2015-03-01 07:40:00,21.6,4.0,29.41,SSE,155,0.0,0.0,46,0.00,,,0.00,VWS V14.00,2015-03-01 12:40:00,